Location: Star Hoppers Observatory
(42.7905°N, 83.6127°W)
Time: 19:26:55
(UTC-04:00)

Daily predictions for brighter satellites

Satellite Brightness Start Highest point End
(mag) Time Altitude Azimuth Time Altitude Azimuth Time Altitude Azimuth
NOSS 2-1 (E) 3.8 20:45:44 10° S 20:49:00 32° ESE 20:52:32 10° NE
Cosmos 2278 Rocket 3.7 20:46:20 10° N 20:50:34 21° NE 20:54:48 10° E
ATLAS CENTAUR R/B 2.9 20:49:53 10° SE 20:51:30 13° ESE 20:53:09 10° E
Cosmos 1726 4.2 20:52:27 10° SW 20:55:54 34° WNW 20:59:21 10° N
Cosmos 1666 Rocket 4.1 20:52:55 10° N 20:57:12 41° ENE 21:01:25 10° SSE
USA 186 1.4 20:56:15 10° SE 20:58:21 37° ENE 21:00:29 10° N
Resurs 1-3 4.0 20:55:37 10° SE 20:59:47 44° ENE 21:03:58 10° N
OAO 2 Rocket 4.3 20:55:42 10° WSW 21:00:24 34° S 21:04:57 10° ESE
NOSS 3-3 (A) 4.4 20:55:18 10° S 21:00:47 38° ESE 21:06:43 10° NE
NOSS 3-3 (C) 4.4 20:55:25 10° S 21:00:53 38° ESE 21:06:48 10° NE
H-2A R/B 3.9 20:59:30 10° E 21:01:46 13° ENE 21:04:00 10° NNE
Cosmos 494 Rocket 4.3 21:00:33 10° NNW 21:05:45 73° WSW 21:10:57 10° S
YAOGAN 6 2.7 21:03:18 10° SSE 21:06:49 58° ENE 21:10:24 10° N
Cosmos 1809 Rocket 4.4 21:05:00 10° S 21:11:06 70° E 21:17:15 10° NNE
USA 267 4.5 21:08:05 10° E 21:12:04 17° ESE 21:16:02 10° SSE
Sich 1 3.0 21:08:07 10° N 21:12:23 66° E 21:16:37 10° SSE
In-Cosmos 22 Rocket 4.2 21:07:18 10° NNW 21:12:50 82° W 21:18:11 10° S
Nadezhda 3 Rocket 4.1 21:07:18 10° N 21:13:36 66° E 21:19:54 10° SSE
Cosmos 1340 2.6 21:11:36 10° S 21:15:22 77° E 21:19:10 10° NNE
Cosmos 1151 Rocket 4.1 21:13:26 10° SE 21:16:45 24° E 21:20:11 10° NE
Cosmos 2251 Rocket 3.6 21:11:35 10° NNW 21:17:00 80° ENE 21:22:21 10° SSE
Cosmos 1939 Rocket 2.7 21:17:20 10° SSE 21:21:12 84° ENE 21:25:07 10° N
SJ-6B 4.2 21:18:19 10° S 21:22:10 42° W 21:25:58 10° NNW
Cosmos 2322 4.4 21:17:16 10° SW 21:22:49 59° WNW 21:28:27 10° NNE
Envisat 3.9 21:20:42 10° S 21:25:38 51° W 21:30:36 10° NNW
Cosmos 1825 3.6 21:24:04 10° NNE 21:27:05 22° ENE 21:28:24 18° ESE
Meteor 2-3 Rocket 3.8 21:23:33 10° N 21:29:07 62° ENE 21:34:38 10° SSE
Meteor 2-14 Rocket 4.4 21:24:31 10° S 21:30:34 74° E 21:36:41 10° NNE
Cosmos 1633 Rocket 3.0 21:26:50 10° N 21:31:12 80° E 21:35:33 10° S
SL-16 R/B 4.0 21:33:18 12° E 21:33:18 12° E 21:34:34 10° ENE
Cosmos 2098 Rocket 4.5 21:31:01 18° ESE 21:32:24 21° E 21:35:31 10° NE
Meteor 2-15 Rocket 4.5 21:29:25 10° N 21:35:37 86° W 21:41:44 10° S
Cosmos 2228 Rocket 3.5 21:32:02 11° SSE 21:35:58 40° E 21:40:06 10° NNE
SL-8 R/B 4.4 21:34:34 10° SSW 21:38:46 31° SE 21:41:34 18° E
SL-24 R/B - RUBIN 2 3.9 21:34:49 10° NW 21:39:07 60° WSW 21:42:34 15° SSE
Meteor 2-16 Rocket 4.4 21:33:21 10° S 21:39:27 72° E 21:45:33 10° NNE
Cosmos 1515 Rocket 3.8 21:37:19 11° SSE 21:41:27 47° E 21:45:44 10° NNE
Thor Agena Rocket 4.3 21:39:19 10° N 21:44:26 56° WNW 21:49:34 10° SSW
ARGOS 3.6 21:44:34 22° SE 21:47:34 42° ENE 21:52:36 10° N
Cosmos 2154 Rocket 4.4 21:43:24 10° SSW 21:49:37 66° W 21:55:50 10° N
BREEZE-M DEB (TANK) 2.8 21:46:48 10° WNW 21:50:19 41° NNE 21:51:02 31° ENE
GEOS 3 Rocket 4.3 21:45:53 10° NE 21:50:38 32° ESE 21:55:18 10° S
SL-08 RB Rocket 4.5 21:52:57 27° ESE 21:54:23 34° ENE 21:58:26 10° N
Resurs 01 Rocket 2.6 21:53:29 10° S 21:57:44 45° W 22:02:02 10° NNW
Cosmos 1980 3.7 21:53:24 10° S 21:58:58 59° ESE 22:04:34 10° NNE
Meteor 1-27 4.3 21:53:15 10° SSW 21:59:00 81° W 22:04:43 10° N
Cosmos 1727 Rocket 4.4 21:56:30 10° N 22:02:21 43° ENE 22:04:57 29° SE
Cosmos 1328 Rocket 3.9 21:58:17 10° SSW 22:02:39 69° W 22:07:06 10° N
BREEZE-M DEB (TANK) 4.1 21:55:49 10° W 22:02:48 36° NNW 22:05:13 13° NE
Cosmos 2333 Rocket 2.3 21:59:32 10° SSW 22:05:12 80° WNW 22:10:54 10° NNE
Cosmos 1959 Rocket 4.4 22:00:08 14° S 22:05:29 62° E 22:11:31 10° NNE
Spot 2 Rocket 4.2 22:03:45 10° S 22:08:42 52° W 22:13:41 10° NNW
Cosmos 2341 Rocket 4.4 22:03:33 10° SSW 22:09:53 68° W 22:16:13 10° N
COSMOS 2428 3.9 22:05:10 10° SW 22:10:38 44° WNW 22:16:07 10° NNE
Cosmos 1470 Rocket 3.7 22:07:56 10° NNW 22:12:19 71° W 22:14:51 25° S
Meteor 2-10 Rocket 3.9 22:11:14 30° SSE 22:13:41 49° E 22:19:17 10° NNE
ATLAS 2AS CENTAUR R/B 3.0 22:05:59 10° NW 22:13:55 79° WSW 22:18:17 27° SSE
Cosmos 1455 3.5 22:10:25 10° SSW 22:14:01 40° WNW 22:17:41 10° N
Cosmos 1844 Rocket 4.2 22:12:39 10° NW 22:17:36 32° WSW 22:22:31 10° SSW
Cosmos 2218 Rocket 3.9 22:11:56 12° S 22:17:46 78° E 22:24:12 10° N
Cosmos 1862 4.4 22:15:10 10° NNE 22:18:24 30° ENE 22:18:24 30° ENE
Terra 3.5 22:21:55 19° ENE 22:22:04 19° ENE 22:25:22 10° NNE
Cosmos 1408 2.9 22:20:46 10° NNW 22:24:23 61° W 22:25:16 45° SSW
Cosmos 2237 Rocket 2.1 22:21:15 10° SSW 22:26:53 90° WNW 22:32:33 10° NNE
Cosmos 2219 Rocket 3.3 22:22:37 10° SW 22:28:02 46° WNW 22:33:28 10° NNE
ATLAS CENTAUR R/B 1.9 22:26:22 10° SW 22:29:56 51° NW 22:33:43 10° NNE
Lacrosse 5 4.2 22:26:50 10° NNW 22:30:12 17° N 22:33:32 10° NE
SPOT 5 3.2 22:30:51 42° E 22:31:05 43° ENE 22:35:21 10° N
USA 81 4.0 22:26:39 10° N 22:31:54 62° E 22:32:58 50° SE
Cosmos 2366 rocket 3.9 22:27:19 18° S 22:32:06 90° ESE 22:38:25 10° N
SPOT 1/Viking Rocket 4.0 22:31:21 41° E 22:32:08 44° ENE 22:37:05 10° N
Cosmos 2278 Rocket 2.4 22:29:33 10° NNW 22:35:12 69° WSW 22:37:23 38° S
Genesis I 3.9 22:31:30 10° NW 22:35:26 47° WSW 22:35:57 44° SW
MetOp-A 4.2 22:33:31 35° S 22:35:49 74° WSW 22:41:11 10° NNW
NOSS 0 Rocket 4.3 22:30:46 10° SW 22:36:53 66° WNW 22:43:05 10° NNE
TRAILBLAZER 4.4 22:35:44 38° SSW 22:37:25 77° ESE 22:42:06 10° NE
Cosmos 405 Rocket 4.2 22:41:01 26° NE 22:41:01 26° NE 22:43:01 10° NNE
H-2A R/B 1.9 22:39:07 49° S 22:40:31 85° WSW 22:45:32 10° NNW
NOSS 3-4 (A) 4.0 22:37:13 10° NNW 22:44:11 63° NE 22:46:43 42° ESE
NOSS 3-4 (C) 4.0 22:37:20 10° NNW 22:44:17 63° NE 22:46:49 41° ESE
ATLAS 5 CENTAUR R/B 4.4 22:42:48 10° N 22:46:25 17° NNE 22:49:40 12° ENE
Cosmos 407 Rocket 3.3 22:42:22 10° NNW 22:47:31 73° ENE 22:48:01 67° ESE
ERS-1 Rocket 3.0 22:50:19 55° SSW 22:51:21 73° WSW 22:56:24 10° NNW
Cosmos 1371 Rocket 4.2 22:50:10 22° SSW 22:53:36 73° WNW 22:58:58 10° NNE
Cosmos 1707 Rocket 4.4 22:57:03 41° NE 22:57:03 41° NE 23:00:01 10° NNE
USA 267 3.1 22:49:16 10° NE 22:55:49 69° SE 23:02:19 10° SW
Cosmos 614 Rocket 4.4 22:51:49 10° N 22:56:51 47° ENE 22:56:51 47° ENE
Cosmos 1825 4.1 22:59:29 10° NW 23:02:34 24° W 23:03:17 22° WSW
Cosmos 1869 Rocket 3.7 22:58:45 10° N 23:02:44 71° NW 23:02:44 71° NW
Cosmos 676 Rocket 4.0 22:59:56 10° NNW 23:05:05 65° ENE 23:05:05 65° ENE
SL-19 R/B 4.1 23:09:46 76° SE 23:10:12 85° ENE 23:15:49 10° NNW
Cosmos 2344 3.5 23:10:53 53° SSE 23:12:01 58° ESE 23:20:01 10° NE
CARTOSAT-1 4.5 23:14:50 43° NNE 23:14:50 43° NNE 23:17:55 10° N
Cosmos 2056 Rocket 4.0 23:13:06 33° SW 23:15:23 60° WNW 23:20:45 10° NNE
SL-16 R/B 2.1 23:15:04 76° SSW 23:15:32 89° WNW 23:21:14 10° NNE
Helios 1B rocket 3.5 23:11:36 10° N 23:14:23 42° N 23:14:23 42° N
Cosmos 1452 Rocket 4.4 23:18:16 37° NE 23:18:16 37° NE 23:21:34 10° NNE
SL-8 R/B 4.5 23:16:17 10° WSW 23:19:41 45° W 23:19:41 45° W
Helios 1A 4.3 23:26:20 36° WNW 23:26:20 36° WNW 23:29:42 10° NNW
GEOS 3 Rocket 4.5 23:23:37 10° NNE 23:28:47 49° NW 23:33:50 10° WSW
USA 234 3.7 23:27:52 42° ENE 23:29:38 52° NNE 23:35:56 10° NW
Cosmos 1934 Rocket 4.1 23:31:58 61° ENE 23:31:58 61° ENE 23:37:19 10° NNE
Cosmos 1943 Rocket 3.7 23:27:47 10° N 23:32:07 23° NE 23:32:07 23° NE
CZ-2C R/B 3.8 23:39:38 41° NNE 23:39:38 41° NNE 23:42:56 10° N
Cosmos 2297 4.4 23:39:45 10° NW 23:44:54 47° W 23:44:54 47° W
Cosmos 1140 Rocket 4.1 23:42:17 10° NNW 23:46:26 52° WNW 23:46:26 52° WNW
Cosmos 1821 Rocket 4.3 23:53:04 60° WSW 23:53:39 62° W 23:59:56 10° N
SeaSat 1 4.4 23:55:37 20° NE 23:55:37 20° NE 23:58:49 10° N
